Tracking 19831 objects as of 23-Aug-2019
HD Live streaming from Space Station
objects crossing your sky now

COSMOS 2251 DEB

Track COSMOS 2251 DEB now!
10-day predictions


NORAD ID: 37132
Int'l Code: 1993-036BHE
Perigee: 670.9 km
Apogee: 755.0 km
Inclination: 74.0 °
Period: 98.9 minutes
Semi major axis: 7083 km
RCS: 0.0042 m2 (small)
Launch date: June 16, 1993
Source: Commonwealth of Independent States (former USSR) (CIS)
Launch site: PLESETSK MISSILE AND SPACE COMPLEX (PKMTR)

Note: This is SATELLITE DEBRIS
aabbcc
Your satellite tracking list
Your tracking list is empty




NASA's NSSDC Master Catalog

Two Line Element Set (TLE):
1 37132U 93036BHE 19234.61274594 +.00000236 +00000-0 +59280-4 0  9993
2 37132 074.0120 330.1295 0059346 334.7296 025.0965 14.56102431287513
Source of the keplerian elements: AFSPC